Regional Weather Roundup
Issued by NWS

Home | Current Version | Previous Version | Text Only | Print | Product List | Glossary Off
Versions: 1 2 3 4 5 6 7 8 9 10 11 12 13 14 15 16 17 18 19 20 21 22 23 24 25 26 27 28

000
ASUS45 KSLC 251710
RWRUT

UTAH REGIONAL WEATHER ROUNDUP
NATIONAL WEATHER SERVICE SALT LAKE CITY UT
1100 AM MDT THU AUG 25 2016

UTZ001>011-023>025-251800-

NORTHERN UTAH

CITY           SKY/WX    TMP DP  RH WIND       PRES   REMARKS
BRIGHAM CITY     N/A     70  26  18 CALM      30.14S
HILL AFB       PTSUNNY   64  31  29 E20       30.13F
LOGAN          MOSUNNY   64  34  32 CALM      30.18S
OGDEN          CLOUDY    67  31  26 NE13      30.11F
PROVO AIRPORT  MOSUNNY   66  28  24 S5        30.13S
SALT LAKE CITY CLOUDY    70  35  27 W5        30.12S
VERNAL         SUNNY     69  38  32 E7        30.20F
WENDOVER         N/A     73  27  17 SE9       30.12F
HEBER CITY     PTSUNNY   59  23  25 CALM      30.20F
WEST JORDAN    CLOUDY    68  31  25 E3        30.15R

$$

UTZ012>022-026-027-251800-

SOUTHERN/CENTRAL UTAH

CITY           SKY/WX    TMP DP  RH WIND       PRES   REMARKS
BLANDING       MOSUNNY   70  43  37 E5        30.33F
BRYCE CANYON   MOSUNNY   70  43  37 VRB3      30.31F
CEDAR CITY     PTSUNNY   70  39  32 N8        30.21R
DELTA          MOSUNNY   68  23  18 S10       30.13S
MILFORD        MOSUNNY   71  30  21 S8        30.17R
MOAB/CYNLANDS  SUNNY     76  43  30 E12       30.13S
PRICE          MOSUNNY   71  28  20 CALM      30.20F
ST GEORGE      PTSUNNY   82  46  28 CALM      30.04F

$$

REGIONAL REPORTS     COLORADO/ARIZONA

CITY           SKY/WX    TMP DP  RH WIND       PRES   REMARKS
CRAIG, CO      CLOUDY    62  39  42 CALM      30.28F
GRAND JUNCTION CLOUDY    64  46  52 SW7       30.22S
RIFLE          CLOUDY    67  41  38 NW3       30.24S
MONTROSE       MOSUNNY   67  45  45 NW6       30.26S
CORTEZ         CLOUDY    71  47  42 W8        30.27R
PAGE, AZ       MOSUNNY   78  45  30 VRB6      30.12F
GRAND CANYON   SUNNY     75  45  34 SW8       30.30F
KINGMAN        SUNNY     85  50  29 E8        30.07S
FLAGSTAFF      PTSUNNY   67  51  56 SW10      30.33F

$$

REGIONAL REPORTS    NEVADA/IDAHO/WYOMING

CITY           SKY/WX    TMP DP  RH WIND       PRES   REMARKS
LAS VEGAS, NV  MOSUNNY   94  33  11 VRB5      29.91S
ELY            SUNNY     62  19  19 E3        30.22S
ELKO           SUNNY     70  23  17 N8        30.16F
POCATELLO, ID  SUNNY     63  37  38 NE10      30.19F
EVANSTON, WY   CLOUDY    56  36  47 NE10      30.31S
ROCK SPRINGS   MOSUNNY   58  39  49 NE12      30.32

$$




USA.gov is the U.S. government's official web portal to all federal, state and local government web resources and services.